[[{"header":{"parameterUnit":"m.s-1","parameterCategory":1,"la1":30.2991,"la2":30.254,"lo1":-89.0895,"lo2":-89.0444,"dy":0.0017,"dx":0.0017,"nx":28,"ny":28,"refTime":"2025-09-17T03:00:00:Z","depth":0,"parameterNumber":2,"parameterNumberName":"U-component_of_WINDS"},"data":[0,0,0,0,0,0,0,0,0,0,0,0,0,0,0,0,0,0,0,0,0,0,0,0,0,0,0,0,0,0,0,0,0,0,0,0,0,0,0,0,0,0,0,0,0,0,0,0,0,0,0,0,0,0,0,0,0,0,-1.1689,-1.1689,0,-1.1713,-1.1713,-1.1713,-1.171,-1.1709,-1.1709,-1.1708,-1.1735,-1.1737,-1.1738,0,0,0,0,0,0,0,0,0,0,0,0,0,-1.1643,-1.1644,-1.1689,-1.1689,-1.1689,-1.1713,-1.1713,-1.1713,-1.171,-1.1709,-1.1709,-1.1708,-1.1735,-1.1736,-1.1738,0,0,0,0,0,0,0,0,0,0,0,0,0,-1.1665,-1.1644,-1.1689,-1.169,-1.1691,-1.1713,-1.1713,-1.1714,-1.171,-1.1709,-1.1709,-1.1708,-1.1735,-1.1736,-1.1738,-1.1761,0,0,-1.1743,-1.1744,0,0,0,0,0,0,0,0,-1.1663,-1.1666,-1.169,-1.169,-1.1691,-1.1708,-1.1707,-1.1729,-1.171,-1.1703,-1.1708,-1.1708,-1.1727,-1.1729,-1.1735,-1.1762,-1.1763,-1.1743,-1.1744,-1.1745,-1.1745,0,0,0,0,0,0,0,-1.1662,-1.1665,-1.1698,-1.169,-1.1691,-1.1691,-1.1693,-1.1711,-1.1718,-1.1703,-1.1703,-1.1706,-1.1727,-1.1733,-1.1736,-1.1764,-1.1743,-1.1745,-1.1746,-1.1746,-1.1813,-1.1814,0,0,0,0,0,0,-1.166,-1.1664,-1.1697,-1.1699,-1.1675,-1.1692,-1.1695,-1.1703,-1.1718,-1.1719,-1.1706,-1.1706,-1.1731,-1.1734,-1.1737,-1.1766,-1.1745,-1.1746,-1.1747,-1.1813,-1.1814,-1.1814,0,0,0,0,0,0,-1.1659,-1.1663,-1.1697,-1.1682,-1.1686,-1.1694,-1.1703,-1.1704,-1.171,-1.172,-1.1722,-1.1711,-1.1731,-1.1734,-1.1755,-1.1767,-1.1747,-1.1749,-1.1812,-1.1813,-1.1814,-1.1823,0,0,0,0,0,0,-1.1657,-1.1662,-1.167,-1.1682,-1.1687,-1.1713,-1.1703,-1.1704,-1.1713,-1.1712,-1.1725,-1.1727,-1.173,-1.1753,-1.1757,-1.1769,-1.175,-1.1811,-1.1812,-1.1814,-1.1822,-1.1825,-1.1827,0,0,0,0,0,-1.1656,-1.1671,-1.167,-1.1674,-1.1696,-1.1714,-1.1717,-1.172,-1.1713,-1.1722,-1.1729,-1.1727,-1.1765,-1.1755,-1.176,-1.1772,-1.181,-1.1812,-1.1814,-1.1821,-1.1824,-1.1827,0,0,0,0,0,0,-1.1661,-1.1673,-1.1672,-1.1691,-1.1702,-1.1713,-1.1724,-1.1723,-1.1736,-1.1734,-1.1738,-1.1742,-1.1763,-1.177,-1.1758,-1.1796,-1.1787,-1.179,-1.1791,-1.1794,-1.1796,-1.1794,-1.1751,0,0,0,0,0,-1.1664,-1.1677,-1.1687,-1.1704,-1.1709,-1.1716,-1.1723,-1.1725,-1.1736,-1.1741,-1.1749,-1.1761,-1.1776,-1.1785,-1.1799,-1.1823,-1.1827,-1.1835,-1.1837,-1.1839,-1.1841,-1.1857,-1.186,-1.182,-1.182,-1.182,0,0,-1.1671,-1.168,-1.1687,-1.1705,-1.1713,-1.1727,-1.1719,-1.1734,-1.1745,-1.1743,-1.1763,-1.177,-1.1784,-1.1807,-1.1818,-1.1813,-1.1853,-1.1841,-1.1843,-1.1844,-1.1859,-1.1863,-1.1866,-1.1821,-1.1821,-1.1821,0,0,-1.1692,-1.1699,-1.1714,-1.1723,-1.1735,-1.174,-1.1744,-1.1756,-1.1761,-1.1781,-1.1781,-1.1795,-1.182,-1.183,-1.1838,-1.1866,-1.1865,-1.1871,-1.1883,-1.1898,-1.1901,-1.1904,-1.1915,-1.1919,-1.1873,-1.1873,-1.1873,0,-1.1699,-1.1719,-1.1722,-1.1738,-1.1746,-1.1745,-1.1762,-1.1771,-1.1788,-1.1794,-1.1789,-1.1822,-1.1831,-1.1858,-1.1865,-1.1871,-1.1877,-1.1869,-1.19,-1.1903,-1.1906,-1.1917,-1.1921,-1.1874,-1.1874,-1.1874,-1.1873,0,-1.1729,-1.1743,-1.1754,-1.177,-1.178,-1.1796,-1.1803,-1.1813,-1.1815,-1.1821,-1.1843,-1.1855,-1.1872,-1.1879,-1.188,-1.1906,-1.1903,-1.1899,-1.189,-1.1911,-1.1921,-1.1925,-1.1875,-1.1874,-1.1874,-1.1874,0,0,-1.1751,-1.177,-1.1774,-1.1782,-1.1797,-1.1809,-1.1826,-1.1843,-1.1852,-1.1865,-1.188,-1.1903,-1.19,-1.191,-1.1913,-1.1926,-1.195,-1.1921,-1.1922,-1.1927,-1.1981,-1.1984,-1.1988,-1.1949,-1.195,-1.1951,-1.198,0,-1.1773,-1.1802,-1.1806,-1.1833,-1.1847,-1.1848,-1.1863,-1.1875,-1.1882,-1.1896,-1.1905,-1.1921,-1.1915,-1.1921,-1.1935,-1.1944,-1.196,-1.1942,-1.1965,-1.1966,-1.1961,-1.1993,-1.1996,-1.2023,-1.1984,-1.1985,-1.1985,0,-1.1803,-1.1816,-1.1843,-1.1858,-1.1864,-1.1878,-1.1895,-1.1908,-1.1923,-1.1927,-1.1939,-1.1941,-1.1961,-1.1952,-1.1981,-1.1968,-1.1978,-1.1985,-1.1986,-1.1988,-1.1977,-1.1997,-1.2032,-1.2036,-1.1991,-1.1991,-1.199,0,-1.1817,-1.1842,-1.1862,-1.1869,-1.1887,-1.1897,-1.1905,-1.1919,-1.1929,-1.1945,-1.1952,-1.197,-1.198,-1.1994,-1.2002,-1.1994,-1.2031,-1.2022,-1.2037,-1.2037,-1.2044,-1.2043,-1.2081,-1.205,-1.205,-1.205,-1.205,0,-1.1842,-1.1859,-1.1869,-1.1882,-1.1902,-1.1908,-1.1928,-1.1936,-1.1949,-1.1964,-1.1967,-1.1981,-1.1991,-1.2008,-1.2014,-1.2038,-1.2043,-1.2048,-1.2049,-1.2048,-1.2047,-1.2054,-1.2053,-1.2051,-1.2051,-1.2051,-1.205,0,-1.1862,-1.1869,-1.1891,-1.1907,-1.1911,-1.1925,-1.1939,-1.1952,-1.196,-1.198,-1.1985,-1.1997,-1.2017,-1.2027,-1.2052,-1.2056,-1.2084,-1.2084,-1.2079,-1.2079,-1.2094,-1.2093,-1.2138,-1.2145,-1.2109,-1.2109,-1.2109,0,-1.1877,-1.189,-1.1907,-1.1917,-1.1925,-1.1941,-1.1952,-1.196,-1.1971,-1.199,-1.2002,-1.2022,-1.2038,-1.2071,-1.2083,-1.2103,-1.2104,-1.2119,-1.2107,-1.2106,-1.2106,-1.2105,-1.2107,-1.2121,-1.2121,-1.2121,-1.2122,0,-1.1903,-1.1907,-1.1922,-1.1939,-1.1952,-1.1966,-1.1979,-1.1988,-1.1998,-1.2012,-1.2032,-1.2045,-1.2071,-1.2092,-1.2113,-1.2123,-1.2125,-1.2125,-1.213,-1.2128,-1.2125,-1.2128,-1.2085,-1.2124,-1.2124,-1.2124,-1.2124,-1.2123,-1.1922,-1.1934,-1.1948,-1.1966,-1.1977,-1.199,-1.2004,-1.2014,-1.203,-1.2051,-1.2055,-1.2078,-1.2095,-1.2123,-1.2135,-1.2153,-1.215,-1.2157,-1.2158,-1.216,-1.2161,-1.2122,-1.2157,-1.2157,-1.2157,-1.2157,-1.2157,0,-1.1949,-1.1959,-1.1975,-1.1994,-1.2008,-1.2008,-1.2024,-1.2037,-1.2056,-1.2071,-1.2087,-1.2112,-1.2133,-1.2147,-1.2169,-1.2182,-1.2183,-1.2187,-1.2186,-1.2189,-1.2162,-1.2156,-1.2186,-1.2186,-1.2186,-1.2186,-1.2186,-1.2186,-1.1965,-1.1987,-1.1992,-1.2021,-1.203,-1.2051,-1.2061,-1.2074,-1.2086,-1.2113,-1.213,-1.214,-1.2155,-1.2179,-1.2199,-1.2203,-1.2211,-1.2215,-1.2219,-1.2194,-1.2191,-1.2188,-1.2182,-1.2217,-1.2217,-1.2245,-1.2245,-1.2245]},{"header":{"parameterUnit":"m.s-1","parameterCategory":1,"la1":30.2991,"la2":30.254,"lo1":-89.0895,"lo2":-89.0444,"dy":0.0017,"dx":0.0017,"nx":28,"ny":28,"refTime":"2025-09-17T03:00:00:Z","depth":0,"parameterNumber":3,"parameterNumberName":"V-component_of_WINDS"},"data":[0,0,0,0,0,0,0,0,0,0,0,0,0,0,0,0,0,0,0,0,0,0,0,0,0,0,0,0,0,0,0,0,0,0,0,0,0,0,0,0,0,0,0,0,0,0,0,0,0,0,0,0,0,0,0,0,0,0,3.5019,3.5019,0,3.5019,3.5019,3.5019,3.5011,3.501,3.501,3.501,3.501,3.501,3.5011,0,0,0,0,0,0,0,0,0,0,0,0,0,3.501,3.5011,3.5019,3.5019,3.5019,3.5019,3.5019,3.5019,3.5011,3.501,3.501,3.501,3.501,3.501,3.5011,0,0,0,0,0,0,0,0,0,0,0,0,0,3.5013,3.5011,3.5019,3.5015,3.5014,3.5019,3.5019,3.5019,3.5011,3.501,3.501,3.501,3.501,3.501,3.5011,3.502,0,0,3.5012,3.5012,0,0,0,0,0,0,0,0,3.5013,3.5013,3.5015,3.5015,3.5015,3.5015,3.5016,3.502,3.5011,3.5012,3.501,3.501,3.5012,3.5012,3.5013,3.502,3.502,3.5012,3.5012,3.5012,3.5012,0,0,0,0,0,0,0,3.5013,3.5013,3.5019,3.5015,3.5015,3.5013,3.5013,3.5017,3.5014,3.5012,3.5011,3.5012,3.5012,3.5013,3.5013,3.502,3.5012,3.5012,3.5012,3.5012,3.5034,3.5034,0,0,0,0,0,0,3.5013,3.5013,3.5019,3.5019,3.5013,3.5013,3.5013,3.5015,3.5014,3.5013,3.5012,3.5011,3.5012,3.5012,3.5013,3.5023,3.5012,3.5012,3.5013,3.5033,3.5034,3.5034,0,0,0,0,0,0,3.5013,3.5014,3.5019,3.5016,3.5016,3.5014,3.5016,3.5015,3.5016,3.5014,3.5013,3.5013,3.5012,3.5012,3.5018,3.5023,3.5012,3.5013,3.5033,3.5033,3.5034,3.5043,0,0,0,0,0,0,3.5013,3.5014,3.5017,3.5016,3.5017,3.5024,3.5016,3.5015,3.5017,3.5016,3.5015,3.5015,3.5012,3.5018,3.5018,3.5023,3.5013,3.5032,3.5033,3.5034,3.5043,3.5044,3.5045,0,0,0,0,0,3.5012,3.502,3.5017,3.5018,3.5021,3.5025,3.5025,3.5022,3.5017,3.5021,3.5019,3.5015,3.5022,3.5018,3.5019,3.5024,3.5032,3.5033,3.5034,3.5042,3.5044,3.5045,0,0,0,0,0,0,3.5022,3.502,3.5017,3.5024,3.5025,3.5023,3.5027,3.5024,3.5026,3.5025,3.502,3.502,3.5026,3.5026,3.5021,3.5032,3.5026,3.5027,3.5032,3.5034,3.5036,3.5035,3.5013,0,0,0,0,0,3.5025,3.5028,3.5026,3.5033,3.5033,3.503,3.5032,3.5029,3.5029,3.5029,3.5028,3.5029,3.5031,3.5033,3.5035,3.5043,3.5042,3.5046,3.5048,3.5049,3.505,3.5053,3.5055,3.5037,3.5037,3.5037,0,0,3.5031,3.503,3.5032,3.5035,3.5035,3.5038,3.5031,3.5034,3.5037,3.503,3.5035,3.5034,3.5034,3.5041,3.5044,3.5041,3.5055,3.505,3.5051,3.5051,3.5054,3.5056,3.5058,3.5037,3.5037,3.5037,0,0,3.5043,3.5043,3.5049,3.5049,3.5049,3.5047,3.5048,3.5047,3.5046,3.5051,3.5046,3.5049,3.5053,3.5053,3.5054,3.5067,3.5062,3.5067,3.5075,3.5078,3.508,3.5081,3.5085,3.5086,3.5068,3.5068,3.5068,0,3.5051,3.5055,3.5052,3.5056,3.5057,3.5051,3.5056,3.5056,3.5057,3.5058,3.5055,3.506,3.5059,3.5066,3.5069,3.507,3.507,3.5067,3.508,3.5081,3.5082,3.5085,3.5087,3.5069,3.5069,3.5069,3.5069,0,3.5064,3.5067,3.5072,3.5072,3.5074,3.5079,3.5076,3.5077,3.5075,3.5073,3.5078,3.5078,3.5079,3.5081,3.5078,3.5086,3.5084,3.5081,3.5074,3.5084,3.5088,3.5089,3.507,3.5069,3.5069,3.5069,0,0,3.5082,3.5081,3.5082,3.5082,3.5082,3.5084,3.5089,3.509,3.5092,3.5093,3.5096,3.5099,3.5096,3.5096,3.5094,3.5097,3.5106,3.5093,3.5092,3.5094,3.5114,3.5117,3.5118,3.5103,3.5104,3.5104,3.5114,0,3.5094,3.5101,3.5097,3.5105,3.5107,3.5102,3.5106,3.5106,3.5104,3.5106,3.5105,3.5107,3.5103,3.5103,3.5106,3.5104,3.511,3.5104,3.5106,3.5106,3.5105,3.512,3.5123,3.5132,3.5115,3.5116,3.5116,0,3.5108,3.5109,3.5116,3.5115,3.5116,3.5119,3.512,3.5123,3.5122,3.5121,3.5122,3.5119,3.5122,3.5117,3.5122,3.5117,3.5118,3.5118,3.5118,3.5117,3.5111,3.5119,3.5135,3.5137,3.5118,3.5118,3.5118,0,3.5119,3.5123,3.5127,3.5128,3.5127,3.5129,3.5129,3.5128,3.5129,3.513,3.5131,3.5132,3.5133,3.5134,3.5131,3.5127,3.5136,3.513,3.5135,3.5135,3.5136,3.5136,3.5152,3.5138,3.5138,3.5138,3.5138,0,3.5132,3.5136,3.5132,3.5135,3.514,3.5137,3.5141,3.5141,3.514,3.5143,3.5138,3.5141,3.5137,3.5139,3.5137,3.5141,3.5141,3.514,3.5139,3.514,3.514,3.514,3.5139,3.5138,3.5138,3.5138,3.5138,0,3.5145,3.5143,3.5147,3.5146,3.5146,3.5149,3.5148,3.515,3.5149,3.5152,3.5152,3.515,3.5152,3.5149,3.5151,3.5149,3.5155,3.5153,3.5155,3.5154,3.5158,3.5158,3.5174,3.5176,3.5161,3.5162,3.5162,0,3.5153,3.5156,3.5155,3.5156,3.5156,3.5158,3.5159,3.5156,3.5157,3.5157,3.5159,3.5161,3.5162,3.5166,3.5164,3.5165,3.5163,3.5169,3.5164,3.5164,3.5163,3.5162,3.5162,3.517,3.517,3.517,3.517,0,3.5167,3.5165,3.5167,3.5168,3.5169,3.517,3.517,3.5172,3.5168,3.517,3.5172,3.5172,3.5174,3.5176,3.5177,3.5176,3.5172,3.5172,3.5173,3.5174,3.5174,3.5173,3.5157,3.5172,3.5172,3.5172,3.5171,3.5171,3.5177,3.518,3.5179,3.5181,3.5181,3.5181,3.5183,3.5182,3.5183,3.5184,3.5183,3.5185,3.5184,3.5185,3.5185,3.5187,3.5184,3.5186,3.5186,3.5186,3.5187,3.5174,3.5187,3.5187,3.5187,3.5187,3.5187,0,3.519,3.519,3.5191,3.5192,3.5193,3.519,3.519,3.5191,3.5193,3.5193,3.5195,3.5197,3.5198,3.5196,3.5198,3.5199,3.5198,3.52,3.5199,3.5199,3.5189,3.5188,3.5201,3.5201,3.5201,3.5201,3.5201,3.5201,3.5197,3.5201,3.52,3.5203,3.5203,3.5205,3.5205,3.5205,3.5205,3.5208,3.5209,3.5208,3.5207,3.5208,3.5209,3.5209,3.5209,3.5211,3.521,3.5201,3.52,3.5198,3.5197,3.5212,3.5212,3.522,3.522,3.522]}]]